This demonstration page uses our WeatherBlox Daily Observations layout. Learn more.

Left ArrowRight Arrow

Hourly Observations for December 23, 2020

Temp ( °F °C ) Dew Point ( °F °C ) Humidity (%) Winds ( mph kmh ) Pressure ( in mb ) Visibility ( mi km ) Precip ( " mm )
12:15 am 00:15 Clear 34 1 32 0 93 93 SSE 7 11 30.2 1023 10 16.0934 N/A
12:35 am 00:35 Clear 34 1 32 0 93 93 SSE 9 15 30.18 1022 10 16.0934 N/A
12:55 am 00:55 Clear 36 2 32 0 87 87 SSE 9 15 30.17 1022 10 16.0934 N/A
1:15 am 01:15 Clear 34 1 32 0 93 93 SSE 9 15 30.16 1021 10 16.0934 N/A
1:35 am 01:35 Clear 34 1 32 0 93 93 SSE 10 17 30.14 1021 10 16.0934 N/A
1:55 am 01:55 Clear 34 1 32 0 93 93 SSE 10 17 30.14 1021 10 16.0934 N/A
2:15 am 02:15 Clear 34 1 32 0 93 93 SSE 10 17 30.13 1020 10 16.0934 N/A
2:35 am 02:35 Clear 36 2 32 0 87 87 SSE 10 17 30.12 1020 10 16.0934 N/A
2:55 am 02:55 Clear 36 2 32 0 87 87 SSE 12 19 30.11 1020 10 16.0934 N/A
3:15 am 03:15 Clear 36 2 32 0 87 87 SSE 12 19 30.11 1020 10 16.0934 N/A
3:35 am 03:35 Clear 36 2 32 0 87 87 SSE 12 19 30.09 1019 10 16.0934 N/A
3:55 am 03:55 Clear 36 2 32 0 87 87 SSE 10 17 30.08 1019 10 16.0934 N/A
4:15 am 04:15 Clear 36 2 32 0 87 87 SSE 12 19 30.08 1019 10 16.0934 N/A
4:35 am 04:35 Clear 36 2 32 0 87 87 SSE 10 17 30.07 1018 10 16.0934 N/A
4:55 am 04:55 Clear 36 2 32 0 87 87 SSE 9 15 30.07 1018 10 16.0934 N/A
5:15 am 05:15 Clear 36 2 32 0 87 87 SSE 13 20 30.06 1018 10 16.0934 N/A
5:35 am 05:35 Clear 36 2 32 0 87 87 SSE 13 20 30.05 1018 10 16.0934 N/A
5:55 am 05:55 Clear 36 2 32 0 87 87 SSE 10 17 30.05 1018 10 16.0934 N/A
6:15 am 06:15 Clear 36 2 32 0 87 87 SSE 10 17 30.06 1018 10 16.0934 N/A
6:35 am 06:35 Clear 36 2 32 0 87 87 SSE 12 19 30.05 1018 10 16.0934 N/A
6:55 am 06:55 Clear 36 2 32 0 87 87 SSE 12 19 30.05 1018 10 16.0934 N/A
7:15 am 07:15 Clear 36 2 30 -1 81 81 SSE 12 19 30.04 1017 10 16.0934 N/A
7:35 am 07:35 Clear 36 2 30 -1 81 81 SE 16 26 30.02 1017 10 16.0934 N/A
7:55 am 07:55 Clear 36 2 30 -1 81 81 SSE 14 22 30.02 1017 10 16.0934 N/A
8:15 am 08:15 Sunny 36 2 30 -1 81 81 SSE 14 22 30.01 1016 10 16.0934 N/A
8:35 am 08:35 Sunny 37 3 30 -1 75 75 SSE 16 26 29.99 1016 10 16.0934 N/A
8:55 am 08:55 Sunny 37 3 30 -1 75 75 SSE 15 24 29.99 1016 10 16.0934 N/A
9:15 am 09:15 Sunny 39 4 32 0 75 75 SSE 16 26 29.99 1016 10 16.0934 N/A
9:35 am 09:35 Sunny 41 5 32 0 70 70 SSE 18 30 29.97 1015 10 16.0934 N/A
9:55 am 09:55 Sunny 41 5 32 0 70 70 SSE 17 28 29.96 1014 10 16.0934 N/A
10:15 am 10:15 Sunny 43 6 32 0 66 66 SSE 18 30 29.94 1014 10 16.0934 N/A
10:35 am 10:35 Sunny 43 6 32 0 66 66 S 17 28 29.94 1014 10 16.0934 N/A
10:55 am 10:55 Sunny 45 7 34 1 66 66 S 21 33 29.93 1014 10 16.0934 N/A
11:15 am 11:15 Sunny 46 8 34 1 62 62 S 17 28 29.91 1013 10 16.0934 N/A
11:35 am 11:35 Sunny 46 8 36 2 66 66 S 20 31 29.89 1012 10 16.0934 N/A
11:55 am 11:55 Mostly Cloudy 46 8 36 2 66 66 SSE 20 31 29.86 1011 10 16.0934 N/A
12:15 pm 12:15 Cloudy 46 8 36 2 66 66 S 17 28 29.86 1011 10 16.0934 N/A
12:35 pm 12:35 Cloudy 48 9 36 2 62 62 S 16 26 29.83 1010 10 16.0934 N/A
12:55 pm 12:55 Mostly Cloudy 50 10 37 3 62 62 S 17 28 29.82 1010 10 16.0934 N/A
1:15 pm 13:15 Cloudy 48 9 37 3 66 66 S 21 33 29.81 1010 10 16.0934 N/A
1:35 pm 13:35 Cloudy 50 10 37 3 62 62 S 21 33 29.78 1008 10 16.0934 N/A
1:55 pm 13:55 Cloudy 50 10 39 4 67 67 S 21 33 29.77 1008 10 16.0934 N/A
2:15 pm 14:15 Cloudy 50 10 39 4 67 67 S 18 30 29.77 1008 10 16.0934 N/A
2:35 pm 14:35 Cloudy 52 11 41 5 67 67 S 15 24 29.77 1008 10 16.0934 N/A
2:55 pm 14:55 Cloudy 50 10 43 6 76 76 S 16 26 29.78 1008 10 16.0934 N/A
3:15 pm 15:15 Cloudy 50 10 45 7 82 82 S 14 22 29.77 1008 10 16.0934 N/A
3:35 pm 15:35 Cloudy 50 10 46 8 88 88 S 13 20 29.77 1008 10 16.0934 N/A
3:55 pm 15:55 Cloudy 50 10 48 9 94 94 S 14 22 29.76 1008 10 16.0934 N/A
4:15 pm 16:15 Cloudy 48 9 48 9 100 100 S 17 28 29.76 1008 7 11.26538 N/A
4:35 pm 16:35 Cloudy 48 9 48 9 100 100 S 15 24 29.75 1008 5 8.0467 N/A
4:55 pm 16:55 Cloudy 48 9 48 9 100 100 S 12 19 29.74 1007 7 11.26538 N/A
5:15 pm 17:15 Cloudy 48 9 48 9 100 100 S 17 28 29.74 1007 10 16.0934 N/A
5:35 pm 17:35 Cloudy 48 9 48 9 100 100 S 15 24 29.73 1007 10 16.0934 N/A
5:55 pm 17:55 Cloudy 48 9 48 9 100 100 SSE 13 20 29.72 1007 10 16.0934 N/A
6:15 pm 18:15 Cloudy 48 9 48 9 100 100 S 14 22 29.72 1007 10 16.0934 N/A
6:35 pm 18:35 Cloudy 48 9 48 9 100 100 SSE 12 19 29.71 1006 10 16.0934 N/A
6:55 pm 18:55 Cloudy 48 9 48 9 100 100 SSE 14 22 29.7 1006 10 16.0934 N/A
7:15 pm 19:15 Cloudy 48 9 48 9 100 100 S 13 20 29.7 1006 10 16.0934 N/A
7:35 pm 19:35 Cloudy 48 9 48 9 100 100 SSE 15 24 29.68 1005 10 16.0934 N/A
7:55 pm 19:55 Cloudy 46 8 46 8 100 100 SSE 14 22 29.68 1005 10 16.0934 N/A
8:15 pm 20:15 Cloudy 46 8 46 8 100 100 SSE 14 22 29.67 1005 7 11.26538 N/A
8:35 pm 20:35 Cloudy 48 9 48 9 100 100 SSE 15 24 29.65 1004 10 16.0934 N/A
8:55 pm 20:55 Cloudy 48 9 48 9 100 100 SSE 16 26 29.64 1004 10 16.0934 N/A
9:15 pm 21:15 Cloudy 48 9 48 9 100 100 S 16 26 29.63 1004 7 11.26538 N/A
9:35 pm 21:35 Cloudy 48 9 48 9 100 100 S 20 31 29.62 1003 10 16.0934 N/A
9:55 pm 21:55 Cloudy 48 9 48 9 100 100 SSE 20 31 29.61 1003 10 16.0934 N/A
10:15 pm 22:15 Cloudy 48 9 48 9 100 100 S 22 35 29.6 1002 10 16.0934 N/A
10:35 pm 22:35 Cloudy 48 9 48 9 100 100 S 22 35 29.59 1002 10 16.0934 N/A
10:55 pm 22:55 Cloudy 48 9 48 9 100 100 S 20 31 29.58 1002 10 16.0934 N/A
11:15 pm 23:15 Cloudy 48 9 48 9 100 100 S 20 31 29.58 1002 10 16.0934 N/A
11:35 pm 23:35 Cloudy 48 9 48 9 100 100 SW 20 31 29.64 1004 5 8.0467 N/A
11:55 pm 23:55 Cloudy 48 9 48 9 100 100 SW 15 24 29.65 1004 4 6.43736 N/A

Powered by AerisWeather